FENGYUN 1C DEB, 37057

Orbit data source: Space-Track

FENGYUN 1C DEB, 37057 is space debris in SSO originally from a launch on Mon, 10 May 1999 UTC launched from the Taiyaun Space Center, China (TSC). Fengyun 1C debris stems from the Chinese weather satellite Fengyun-1C, which was intentionally destroyed by a Chinese anti-satellite missile in 2007. This event dramatically increased the amount of space debris, with thousands of trackable fragments posing hazards to satellites and human spaceflight. The Fengyun 1C debris cloud has become a focal point in discussions about space sustainability and the need for international regulations to prevent the creation of new debris.

Loading next visibility...
Identifier
37057, 1999-025EER
Orbit
SSO
Country
Flag of CNCN / PRC
Related business
Manufacturer
Unknown
Mission
Spacecraft
Bus & Motor
Unknown
Mass
Unknown
Launch date (UTC)
1999-05-10 (27 years ago)
Launch vehicle
Unknown
Launch site
Taiyaun Space Center, China (TSC)
Object type
Payload
Rocket body
Debris
Shape & HBR
Unknown shape, 0.1 m
Radar Cross Section
Small (<0.1 m²)

Expand to show TLE details & history
Last TLE update: 4 days ago

TLE from 4 days ago
0 FENGYUN 1C DEB
1 37057U 99025EER 26232.78122770 -.00000067  00000-0 -12683-4 0  9995
2 37057  98.9160 245.1709 0283816 167.1744 193.6838 13.96442917671012
Epoch: 2026-08-20T18:44Z
TLE epoch observation values (Epoch: 2026-08-20T18:44:58.073Z)
Latitude
0.00002°
Longitude
-5.18649°
Altitude
1,110.244 km
Speed
7.196 km/s
True Right ascension
16h 20m 41s
True Declination
0° 00' 00"
Sunlit
Object was in daylight at epoch
Visualization orbit readout
Latitude
Unknown
Longitude
Unknown
Altitude
Unknown
Speed
Unknown
Apparent Right ascension
Unknown
Apparent Declination
Unknown
Sunlit
N/A
Visualization observer readout
Local Sidereal Time
01:48:49
Azimuth
Unknown
Elevation
Unknown
Doppler factor
Unknown
Orbital elements
Apogee altitude
1,109.995 km
Perigee altitude
696.676 km
Semi-major axis
7,281.473 km
Eccentricity
0.02838
Inclination
98.916°
RAAN
245.1709°
Arg. of periapsis
167.1744°
True anomaly
192.94012°
Mean anomaly
193.6838°
Eccentric anomaly
193.30944°
Mean motion
3.49313 °/min
Orbital period
103.06 mins
BSTAR
-0.000012683
Loading maneuver chart data...
Computing Atmospheric mass density...

Documentation

Showing up to 5 results
|